TimeCDT,TemperatureF,Dew PointF,Humidity,Sea Level PressureIn,VisibilityMPH,Wind Direction,Wind SpeedMPH,Gust SpeedMPH,PrecipitationIn,Events,Conditions,WindDirDegrees,DateUTC
12:15 AM,60.8,41.0,48,29.84,10.0,ESE,5.8,-,N/A,,Scattered Clouds,110,2012-10-04 05:15:00
12:35 AM,60.8,42.8,52,29.84,10.0,ESE,4.6,-,N/A,,Clear,110,2012-10-04 05:35:00
12:55 AM,59.0,42.8,55,29.83,10.0,ESE,4.6,-,N/A,,Clear,110,2012-10-04 05:55:00
1:15 AM,59.0,42.8,55,29.82,10.0,ESE,5.8,-,N/A,,Clear,110,2012-10-04 06:15:00
1:35 AM,59.0,42.8,55,29.81,10.0,ESE,5.8,-,N/A,,Clear,110,2012-10-04 06:35:00
2:15 AM,57.2,42.8,59,29.79,10.0,ESE,6.9,-,N/A,,Clear,110,2012-10-04 07:15:00
2:35 AM,59.0,42.8,55,29.79,10.0,ESE,4.6,-,N/A,,Clear,120,2012-10-04 07:35:00
2:55 AM,59.0,42.8,55,29.77,10.0,ESE,4.6,-,N/A,,Clear,120,2012-10-04 07:55:00
3:15 AM,57.2,42.8,59,29.76,10.0,ESE,4.6,-,N/A,,Clear,120,2012-10-04 08:15:00
3:35 AM,59.0,44.6,59,29.75,10.0,ESE,5.8,-,N/A,,Mostly Cloudy,120,2012-10-04 08:35:00
3:55 AM,59.0,42.8,55,29.73,10.0,SE,8.1,-,N/A,,Scattered Clouds,130,2012-10-04 08:55:00
4:15 AM,59.0,42.8,55,29.73,10.0,SE,8.1,-,N/A,,Mostly Cloudy,130,2012-10-04 09:15:00
4:35 AM,59.0,42.8,55,29.71,10.0,SE,8.1,-,N/A,,Overcast,130,2012-10-04 09:35:00
4:55 AM,59.0,41.0,51,29.71,10.0,SSE,11.5,-,N/A,,Overcast,160,2012-10-04 09:55:00
5:15 AM,60.8,41.0,48,29.71,10.0,SSE,12.7,23.0,N/A,,Scattered Clouds,160,2012-10-04 10:15:00
5:35 AM,59.0,41.0,51,29.71,10.0,South,15.0,21.9,N/A,,Clear,170,2012-10-04 10:35:00
5:55 AM,57.2,39.2,51,29.71,10.0,SSW,19.6,27.6,N/A,,Clear,200,2012-10-04 10:55:00
6:15 AM,51.8,39.2,62,29.73,10.0,SSW,19.6,27.6,N/A,,Clear,210,2012-10-04 11:15:00
6:35 AM,50.0,39.2,66,29.74,10.0,SSW,18.4,26.5,N/A,,Clear,210,2012-10-04 11:35:00
6:55 AM,46.4,39.2,76,29.76,10.0,SSW,17.3,25.3,N/A,,Mostly Cloudy,210,2012-10-04 11:55:00
7:15 AM,46.4,41.0,81,29.75,10.0,SSW,15.0,21.9,N/A,,Overcast,200,2012-10-04 12:15:00
7:35 AM,46.4,39.2,76,29.76,10.0,SSW,19.6,24.2,N/A,,Overcast,210,2012-10-04 12:35:00
7:55 AM,46.4,39.2,76,29.76,10.0,SSW,21.9,28.8,N/A,,Overcast,210,2012-10-04 12:55:00
8:15 AM,46.4,39.2,76,29.77,10.0,SSW,17.3,27.6,N/A,,Overcast,210,2012-10-04 13:15:00
8:35 AM,44.6,39.2,81,29.77,10.0,SSW,13.8,24.2,N/A,,Overcast,210,2012-10-04 13:35:00
8:55 AM,44.6,37.4,76,29.78,10.0,SSW,19.6,26.5,N/A,,Overcast,210,2012-10-04 13:55:00
9:15 AM,44.6,37.4,76,29.79,10.0,SW,20.7,31.1,N/A,,Overcast,220,2012-10-04 14:15:00
9:35 AM,42.8,35.6,76,29.79,10.0,SW,21.9,29.9,N/A,,Overcast,220,2012-10-04 14:35:00
9:55 AM,42.8,35.6,76,29.81,10.0,SW,24.2,32.2,N/A,,Overcast,220,2012-10-04 14:55:00
10:15 AM,42.8,33.8,70,29.82,10.0,SW,21.9,26.5,N/A,,Overcast,230,2012-10-04 15:15:00
10:35 AM,41.0,33.8,76,29.83,10.0,SW,21.9,28.8,N/A,,Overcast,230,2012-10-04 15:35:00
11:15 AM,42.8,32.0,66,29.84,10.0,SW,24.2,33.4,N/A,,Overcast,230,2012-10-04 16:15:00
11:35 AM,44.6,32.0,61,29.85,10.0,WSW,25.3,31.1,N/A,,Overcast,240,2012-10-04 16:35:00
11:55 AM,44.6,32.0,61,29.86,10.0,WSW,23.0,32.2,N/A,,Overcast,250,2012-10-04 16:55:00
12:15 PM,44.6,32.0,61,29.88,10.0,WSW,20.7,33.4,N/A,,Overcast,240,2012-10-04 17:15:00
12:35 PM,42.8,32.0,66,29.89,10.0,WSW,25.3,31.1,N/A,,Overcast,240,2012-10-04 17:35:00
12:55 PM,44.6,32.0,61,29.89,10.0,WSW,19.6,28.8,N/A,,Overcast,240,2012-10-04 17:55:00
1:15 PM,44.6,30.2,57,29.91,10.0,WSW,23.0,29.9,N/A,,Overcast,240,2012-10-04 18:15:00
1:35 PM,44.6,30.2,57,29.91,10.0,WSW,23.0,29.9,N/A,,Overcast,240,2012-10-04 18:35:00
1:55 PM,44.6,30.2,57,29.91,10.0,West,27.6,34.5,N/A,,Overcast,260,2012-10-04 18:55:00
2:15 PM,48.2,30.2,50,29.91,10.0,WSW,23.0,34.5,N/A,,Overcast,250,2012-10-04 19:15:00
2:35 PM,46.4,28.4,50,29.92,10.0,West,24.2,31.1,N/A,,Overcast,260,2012-10-04 19:35:00
2:55 PM,48.2,28.4,46,29.93,10.0,WSW,26.5,35.7,N/A,,Overcast,250,2012-10-04 19:55:00
3:15 PM,48.2,30.2,50,29.94,10.0,WSW,25.3,35.7,N/A,,Overcast,250,2012-10-04 20:15:00
3:35 PM,44.6,28.4,53,29.95,7.0,West,25.3,38.0,N/A,,Overcast,270,2012-10-04 20:35:00
3:55 PM,44.6,30.2,57,29.95,10.0,WSW,20.7,29.9,N/A,,Overcast,250,2012-10-04 20:55:00
4:15 PM,44.6,30.2,57,29.96,10.0,West,16.1,32.2,N/A,,Overcast,260,2012-10-04 21:15:00
4:35 PM,44.6,30.2,57,29.96,10.0,WSW,19.6,28.8,N/A,,Overcast,250,2012-10-04 21:35:00
5:15 PM,42.8,30.2,61,29.99,10.0,WSW,25.3,32.2,N/A,,Overcast,250,2012-10-04 22:15:00
5:35 PM,42.8,30.2,61,30.00,10.0,West,20.7,32.2,N/A,,Overcast,270,2012-10-04 22:35:00
5:55 PM,41.0,28.4,61,30.00,10.0,West,23.0,31.1,N/A,,Overcast,260,2012-10-04 22:55:00
6:15 PM,41.0,28.4,61,30.01,10.0,WSW,23.0,28.8,N/A,,Overcast,250,2012-10-04 23:15:00
6:35 PM,41.0,28.4,61,30.01,10.0,West,18.4,27.6,N/A,,Overcast,260,2012-10-04 23:35:00
6:55 PM,41.0,28.4,61,30.01,10.0,West,21.9,29.9,N/A,,Overcast,260,2012-10-04 23:55:00
7:15 PM,41.0,28.4,61,30.02,10.0,WSW,21.9,33.4,N/A,,Overcast,250,2012-10-05 00:15:00
7:55 PM,41.0,28.4,61,30.02,10.0,West,18.4,28.8,N/A,,Overcast,270,2012-10-05 00:55:00
8:15 PM,39.2,28.4,65,30.03,10.0,West,20.7,33.4,N/A,,Overcast,260,2012-10-05 01:15:00
8:35 PM,39.2,28.4,65,30.03,10.0,West,20.7,26.5,N/A,,Overcast,270,2012-10-05 01:35:00
9:15 PM,37.4,28.4,70,30.03,10.0,West,18.4,23.0,N/A,,Overcast,260,2012-10-05 02:15:00
9:35 PM,37.4,28.4,70,30.03,10.0,West,18.4,27.6,N/A,,Overcast,270,2012-10-05 02:35:00
10:15 PM,39.2,28.4,65,30.04,10.0,West,12.7,38.0,N/A,,Overcast,260,2012-10-05 03:15:00
10:35 PM,37.4,28.4,70,30.04,10.0,West,18.4,26.5,N/A,,Overcast,260,2012-10-05 03:35:00
10:55 PM,37.4,28.4,70,30.05,10.0,West,16.1,25.3,N/A,,Overcast,260,2012-10-05 03:55:00
11:15 PM,37.4,28.4,70,30.05,10.0,West,18.4,26.5,N/A,,Overcast,260,2012-10-05 04:15:00
11:35 PM,37.4,30.2,75,30.05,10.0,West,16.1,26.5,N/A,,Overcast,260,2012-10-05 04:35:00
11:55 PM,37.4,28.4,70,30.05,10.0,West,17.3,24.2,N/A,,Overcast,260,2012-10-05 04:55:00